Weather History for Moorhead, MN

Change the Weather History Date:

Monday, July 22, 2013

  Actual Average (KFAR) Record (KFAR)
Temperature  
Mean Temperature 64 °F 71 °F  
Max Temperature 73 °F 83 °F 106 °F (1934)
Min Temperature 55 °F 60 °F 42 °F (1887)
Degree Days  
Heating Degree Days 1 0  
Month to date heating degree days 12  
Since 1 June heating degree days 85  
Since 1 July heating degree days 12  
Cooling Degree Days 0 7  
Month to date cooling degree days 144  
Year to date cooling degree days 282  
Since 1 June cooling degree days 251  
Growing Degree Days 14 (Base 50)    
Moisture  
Dew Point 63 °F    
Average Humidity 86    
Maximum Humidity 100    
Minimum Humidity 68    
Precipitation  
Precipitation 0.00 in 0.08 in 2.12 in (1969)
Month to date precipitation 2.13  
Year to date precipitation 12.84  
Snow  
Snow 0.00 in 0.00 in 0.00 in ()
Month to date snowfall 0.0  
Since 1 June snowfall 0.0  
Since 1 July snowfall 0.0  
Snow Depth -    
Sea Level Pressure  
Sea Level Pressure 29.79 in    
Wind  
Wind Speed 10 mph (NNW)    
Max Wind Speed 15 mph    
Max Gust Speed 20 mph    
Visibility 10 miles    
Events Rain , Thunderstorm    
T = Trace of Precipitation, MM = Missing Value Source: NWS Daily Summary

Daily Weather History Graph

Daily Weather History Graph

Search for Another Location

Airport:

Trip Planner

Search our weather history database for the weather conditions in past years. The results will help you decide how hot, cold, wet, or windy it might be!

Date:

Astronomy

Jul. 22, 2013 Rise Set
Actual Time 5:55 AM CDT 9:10 PM CDT
Civil Twilight 5:18 AM CDT 9:47 PM CDT
Nautical Twilight 4:30 AM CDT 10:34 PM CDT
Astronomical Twilight 3:29 AM CDT 11:34 PM CDT
Moon 8:50 PM CDT (7/22) 5:57 AM CDT (7/22)
Length of Visible Light 16h 28m
Length of Day
15h 15m
Full, 100% of the Moon is Illuminated
Jul 22
Full
Jul 22
Full
Jul 29
Last Quarter
Aug 6
New
Aug 14
First Quarter

Hourly Weather History & Observations

Time (CDT) Temp. Dew Point Humidity Pressure Visibility Wind Dir Wind Speed Gust Speed Precip Events Conditions
12:15 AM 73.4 °F 71.6 °F 94% 29.68 in 10.0 mi SSE 12.7 mph 16.1 mph N/A   Clear
12:34 AM 73.4 °F 71.6 °F 94% 29.66 in 10.0 mi South 11.5 mph 17.3 mph N/A   Scattered Clouds
12:55 AM 73.4 °F 71.6 °F 94% 29.66 in 10.0 mi South 10.4 mph - N/A   Scattered Clouds
1:15 AM 73.4 °F 71.6 °F 94% 29.67 in 10.0 mi South 6.9 mph 16.1 mph N/A   Scattered Clouds
1:34 AM 71.6 °F 71.6 °F 100% 29.69 in 10.0 mi WSW 5.8 mph - N/A   Scattered Clouds
1:55 AM 71.6 °F 71.6 °F 100% 29.69 in 10.0 mi WSW 6.9 mph - N/A Thunderstorm Thunderstorm
2:15 AM 71.6 °F 71.6 °F 100% 29.67 in 10.0 mi SSW 9.2 mph - N/A Rain Light Rain
2:34 AM 71.6 °F 71.6 °F 100% 29.66 in 10.0 mi SSW 10.4 mph - N/A   Mostly Cloudy
2:55 AM 71.6 °F 71.6 °F 100% 29.65 in 10.0 mi SSW 9.2 mph - N/A   Scattered Clouds
3:15 AM 71.6 °F 71.6 °F 100% 29.66 in 10.0 mi SSW 9.2 mph - N/A   Scattered Clouds
3:34 AM 71.6 °F 71.6 °F 100% 29.66 in 10.0 mi WSW 4.6 mph - N/A   Mostly Cloudy
3:55 AM 71.6 °F 69.8 °F 94% 29.67 in 10.0 mi West 8.1 mph - N/A   Mostly Cloudy
4:15 AM 71.6 °F 69.8 °F 94% 29.67 in 10.0 mi WNW 8.1 mph - N/A   Mostly Cloudy
4:34 AM 71.6 °F 68.0 °F 88% 29.68 in 10.0 mi WNW 6.9 mph - N/A   Scattered Clouds
4:55 AM 69.8 °F 66.2 °F 88% 29.68 in 10.0 mi WNW 6.9 mph - N/A   Scattered Clouds
5:14 AM 68.0 °F 66.2 °F 94% 29.68 in 10.0 mi WNW 9.2 mph - N/A   Clear
5:34 AM 68.0 °F 66.2 °F 94% 29.69 in 10.0 mi WNW 9.2 mph - N/A   Clear
5:55 AM 66.2 °F 66.2 °F 100% 29.69 in 10.0 mi NW 6.9 mph - N/A   Clear
6:14 AM 66.2 °F 66.2 °F 100% 29.70 in 10.0 mi NW 6.9 mph - N/A   Clear
6:35 AM 66.2 °F 66.2 °F 100% 29.70 in 10.0 mi WNW 8.1 mph - N/A   Clear
6:55 AM 66.2 °F 66.2 °F 100% 29.71 in 10.0 mi NW 8.1 mph - N/A   Clear
7:14 AM 66.2 °F 66.2 °F 100% 29.72 in 10.0 mi NW 8.1 mph - N/A   Clear
7:35 AM 68.0 °F 66.2 °F 94% 29.73 in 10.0 mi NW 10.4 mph - N/A   Clear
7:55 AM 68.0 °F 66.2 °F 94% 29.73 in 10.0 mi NNW 13.8 mph 18.4 mph N/A   Clear
8:14 AM 66.2 °F 64.4 °F 94% 29.74 in 10.0 mi NNW 13.8 mph 17.3 mph N/A   Scattered Clouds
8:35 AM 68.0 °F 64.4 °F 88% 29.75 in 10.0 mi North 13.8 mph 19.6 mph N/A   Mostly Cloudy
8:54 AM 66.2 °F 62.6 °F 88% 29.76 in 10.0 mi North 11.5 mph - N/A   Overcast
9:15 AM 66.2 °F 62.6 °F 88% 29.77 in 10.0 mi North 10.4 mph - N/A   Overcast
9:35 AM 66.2 °F 62.6 °F 88% 29.77 in 10.0 mi North 12.7 mph - N/A   Overcast
9:54 AM 66.2 °F 62.6 °F 88% 29.77 in 10.0 mi North 15.0 mph 19.6 mph N/A   Mostly Cloudy
10:15 AM 66.2 °F 62.6 °F 88% 29.78 in 10.0 mi North 12.7 mph 18.4 mph N/A   Overcast
10:35 AM 69.8 °F 62.6 °F 78% 29.79 in 10.0 mi NNW 10.4 mph 17.3 mph N/A   Mostly Cloudy
10:54 AM 68.0 °F 62.6 °F 83% 29.79 in 10.0 mi NW 13.8 mph 17.3 mph N/A   Mostly Cloudy
11:15 AM 68.0 °F 62.6 °F 83% 29.80 in 10.0 mi NNW 11.5 mph - N/A   Mostly Cloudy
11:35 AM 69.8 °F 62.6 °F 78% 29.81 in 10.0 mi North 11.5 mph - N/A   Overcast
11:54 AM 69.8 °F 62.6 °F 78% 29.81 in 10.0 mi NNW 10.4 mph - N/A   Mostly Cloudy
12:15 PM 69.8 °F 60.8 °F 73% 29.81 in 10.0 mi NNW 12.7 mph 16.1 mph N/A   Mostly Cloudy
12:34 PM 69.8 °F 60.8 °F 73% 29.82 in 10.0 mi NNW 12.7 mph 18.4 mph N/A   Mostly Cloudy
12:54 PM 69.8 °F 60.8 °F 73% 29.82 in 10.0 mi NNW 12.7 mph - N/A   Mostly Cloudy
1:15 PM 69.8 °F 60.8 °F 73% 29.83 in 10.0 mi NNW 10.4 mph - N/A   Mostly Cloudy
1:34 PM 69.8 °F 60.8 °F 73% 29.83 in 10.0 mi NNW 12.7 mph - N/A   Mostly Cloudy
1:54 PM 69.8 °F 60.8 °F 73% 29.83 in 10.0 mi NNW 10.4 mph - N/A   Overcast
2:15 PM 69.8 °F 62.6 °F 78% 29.84 in 10.0 mi North 8.1 mph - N/A   Mostly Cloudy
2:34 PM 69.8 °F 60.8 °F 73% 29.84 in 10.0 mi NNW 10.4 mph - N/A   Overcast
2:55 PM 71.6 °F 60.8 °F 69% 29.84 in 10.0 mi North 11.5 mph - N/A   Mostly Cloudy
3:15 PM 69.8 °F 60.8 °F 73% 29.85 in 10.0 mi North 11.5 mph - N/A   Mostly Cloudy
3:34 PM 69.8 °F 59.0 °F 68% 29.86 in 10.0 mi North 10.4 mph 18.4 mph N/A   Overcast
3:55 PM 69.8 °F 60.8 °F 73% 29.86 in 10.0 mi North 10.4 mph 16.1 mph N/A   Overcast
4:15 PM 69.8 °F 60.8 °F 73% 29.86 in 10.0 mi North 9.2 mph - N/A   Overcast
4:34 PM 69.8 °F 60.8 °F 73% 29.86 in 10.0 mi North 13.8 mph - N/A   Overcast
4:55 PM 69.8 °F 60.8 °F 73% 29.86 in 10.0 mi NNW 9.2 mph - N/A   Overcast
5:14 PM 69.8 °F 60.8 °F 73% 29.86 in 10.0 mi NNW 10.4 mph - N/A   Overcast
5:34 PM 69.8 °F 60.8 °F 73% 29.87 in 10.0 mi North 8.1 mph - N/A   Mostly Cloudy
5:55 PM 69.8 °F 60.8 °F 73% 29.87 in 10.0 mi North 12.7 mph - N/A   Overcast
6:14 PM 69.8 °F 59.0 °F 68% 29.87 in 10.0 mi North 12.7 mph 18.4 mph N/A   Mostly Cloudy
6:34 PM 69.8 °F 60.8 °F 73% 29.87 in 10.0 mi North 10.4 mph - N/A   Mostly Cloudy
6:55 PM 69.8 °F 60.8 °F 73% 29.87 in 10.0 mi NNE 13.8 mph - N/A   Scattered Clouds
7:14 PM 69.8 °F 60.8 °F 73% 29.88 in 10.0 mi North 12.7 mph 18.4 mph N/A   Scattered Clouds
7:35 PM 68.0 °F 59.0 °F 73% 29.88 in 10.0 mi North 13.8 mph - N/A   Clear
7:55 PM 66.2 °F 57.2 °F 73% 29.89 in 10.0 mi North 10.4 mph 13.8 mph N/A   Clear
8:14 PM 66.2 °F 57.2 °F 73% 29.89 in 10.0 mi North 9.2 mph - N/A   Scattered Clouds
8:35 PM 64.4 °F 59.0 °F 83% 29.89 in 10.0 mi North 10.4 mph - N/A   Clear
8:54 PM 64.4 °F 57.2 °F 77% 29.90 in 10.0 mi North 8.1 mph - N/A   Clear
9:15 PM 62.6 °F 59.0 °F 88% 29.90 in 10.0 mi North 6.9 mph - N/A   Clear
9:35 PM 60.8 °F 59.0 °F 94% 29.91 in 10.0 mi North 6.9 mph - N/A   Clear
9:54 PM 60.8 °F 59.0 °F 94% 29.91 in 10.0 mi North 6.9 mph - N/A   Clear
10:15 PM 57.2 °F 57.2 °F 100% 29.92 in 10.0 mi North 5.8 mph - N/A   Clear
10:35 PM 57.2 °F 57.2 °F 100% 29.92 in 10.0 mi North 4.6 mph - N/A   Clear
10:54 PM 57.2 °F 57.2 °F 100% 29.93 in 10.0 mi NNW 4.6 mph - N/A   Clear
11:15 PM 55.4 °F 55.4 °F 100% 29.94 in 10.0 mi NW 4.6 mph - N/A   Clear
11:35 PM 55.4 °F 55.4 °F 100% 29.95 in 10.0 mi North 5.8 mph - N/A   Clear
11:54 PM 55.4 °F 55.4 °F 100% 29.95 in 10.0 mi NNW 5.8 mph - N/A   Clear